DW0231 Weather Reports


Display with metric or nautical units.
time (UTC)temp
F
wind
direction
speed
MPH
gust
MPH
rain 1hr
in
rain 24hr
in
rain mn
in
humidity
%
barometer
mb
20260504081543 53 227 0.0 0.0 0.00 0.00 0.00 40 1003.6
20260504044508 59 227 0.0 0.0 0.00 0.00 0.00 33 1004.1
20260504043102 59 227 0.0 0.0 0.00 0.00 0.00 34 1004.1
20260504041524 60 227 0.0 0.0 0.00 0.00 0.00 32 1004.1
20260504040020 60 227 0.0 0.0 0.00 0.00 0.00 31 1004.1
20260504034558 61 227 0.0 0.0 0.00 0.00 0.00 31 1004.1
20260504033031 61 227 0.0 0.0 0.00 0.00 0.00 31 1004.0
20260504031518 61 227 0.0 0.0 0.00 0.00 0.00 31 1003.8
20260504030105 62 227 0.0 0.0 0.00 0.00 0.00 32 1003.8
20260504024533 63 227 0.0 0.0 0.00 0.00 0.00 32 1003.7
20260504023010 65 227 0.0 0.0 0.00 0.00 0.00 28 1003.6
20260504021557 66 227 0.0 0.0 0.00 0.00 0.00 28 1003.6
20260504020046 67 227 0.0 0.0 0.00 0.00 0.00 27 1003.5
20260504014512 69 227 0.0 0.0 0.00 0.00 0.00 26 1003.7
20260504013105 70 227 0.0 0.0 0.00 0.00 0.00 24 1003.9
20260504011537 71 227 0.0 0.0 0.00 0.00 0.00 21 1003.9
20260504010016 72 227 0.0 0.0 0.00 0.00 0.00 20 1004.1
20260504004515 73 227 0.0 0.0 0.00 0.00 0.00 19 1004.3
20260504003057 73 226 1.0 0.0 0.00 0.00 0.00 18 1004.3
20260504001559 74 221 1.0 0.0 0.00 0.00 0.00 19 1004.4
20260504000032 74 222 0.0 0.0 0.00 0.00 0.00 18 1004.5
20260503234524 74 221 0.0 0.0 0.00 0.00 0.00 17 1004.4
20260503233059 75 218 1.0 0.0 0.00 0.00 0.00 16 1004.6
20260503231549 75 217 1.0 0.0 0.00 0.00 0.00 16 1004.7
20260503230028 76 217 3.0 0.0 0.00 0.00 0.00 16 1004.7
20260503224514 76 360 2.0 0.0 0.00 0.00 0.00 15 1004.8
20260503223003 76 5 1.0 0.0 0.00 0.00 0.00 15 1005.0
20260503221534 76 5 2.0 0.0 0.00 0.00 0.00 15 1005.5
20260503220105 76 5 2.0 0.0 0.00 0.00 0.00 17 1005.7
20260503214541 76 191 1.0 0.0 0.00 0.00 0.00 16 1006.2
20260503213030 76 192 1.0 0.0 0.00 0.00 0.00 16 1006.7
20260503211505 76 191 2.0 0.0 0.00 0.00 0.00 15 1006.9
20260503210038 76 205 2.0 0.0 0.00 0.00 0.00 16 1007.1
20260503204533 76 211 3.0 0.0 0.00 0.00 0.00 16 1007.4
20260503203006 76 196 5.0 0.0 0.00 0.00 0.00 16 1007.7
20260503201554 76 190 4.0 0.0 0.00 0.00 0.00 16 1007.8
20260503200054 76 205 4.0 0.0 0.00 0.00 0.00 16 1007.9
20260503194534 74 212 3.0 0.0 0.00 0.00 0.00 18 1007.9
20260503193028 74 208 3.0 0.0 0.00 0.00 0.00 17 1008.3
20260503191516 73 247 3.0 0.0 0.00 0.00 0.00 18 1008.6
20260503184541 74 210 4.0 0.0 0.00 0.00 0.00 17 1008.9
20260503183023 74 219 4.0 0.0 0.00 0.00 0.00 17 1009.3
20260503181504 73 212 3.0 0.0 0.00 0.00 0.00 21 1009.6
20260503180103 72 296 2.0 0.0 0.00 0.00 0.00 24 1009.6
20260503174526 72 308 2.0 0.0 0.00 0.00 0.00 25 1009.8
20260503173108 71 314 2.0 0.0 0.00 0.00 0.00 26 1010.1
20260503171534 71 315 1.0 0.0 0.00 0.00 0.00 24 1010.4